TimeEST,TemperatureF,Dew PointF,Humidity,Sea Level PressureIn,VisibilityMPH,Wind Direction,Wind SpeedMPH,Gust SpeedMPH,PrecipitationIn,Events,Conditions,WindDirDegrees,DateUTC
12:54 AM,52.0,46.0,80,29.80,10.0,SSW,13.8,23.0,N/A,,Clear,200,2013-01-12 05:54:00
1:54 AM,52.0,46.0,80,29.83,10.0,SSW,15.0,23.0,N/A,,Clear,200,2013-01-12 06:54:00
2:54 AM,52.0,45.0,77,29.83,10.0,SSW,13.8,-,N/A,,Clear,210,2013-01-12 07:54:00
3:54 AM,52.0,45.0,77,29.82,10.0,SSW,15.0,-,N/A,,Clear,200,2013-01-12 08:54:00
4:54 AM,52.0,44.1,74,29.82,10.0,SSW,15.0,23.0,N/A,,Clear,210,2013-01-12 09:54:00
5:54 AM,51.1,44.1,77,29.83,10.0,SSW,12.7,23.0,N/A,,Clear,210,2013-01-12 10:54:00
6:54 AM,52.0,45.0,77,29.85,10.0,SW,11.5,-,N/A,,Clear,220,2013-01-12 11:54:00
7:54 AM,52.0,45.0,77,29.88,10.0,SW,12.7,-,N/A,,Clear,220,2013-01-12 12:54:00
8:54 AM,51.1,46.0,83,29.90,10.0,SSW,11.5,-,N/A,,Clear,210,2013-01-12 13:54:00
9:54 AM,52.0,46.0,80,29.91,10.0,SSW,12.7,-,N/A,,Clear,210,2013-01-12 14:54:00
10:54 AM,54.0,46.9,77,29.93,10.0,SW,13.8,-,N/A,,Clear,220,2013-01-12 15:54:00
11:54 AM,55.0,46.9,74,29.91,10.0,SW,12.7,-,N/A,,Clear,220,2013-01-12 16:54:00
12:54 PM,55.9,48.0,75,29.93,10.0,SW,11.5,-,N/A,,Clear,230,2013-01-12 17:54:00
1:54 PM,57.0,44.1,62,29.91,10.0,SW,9.2,-,N/A,,Clear,220,2013-01-12 18:54:00
2:54 PM,55.9,44.1,64,29.93,10.0,SW,11.5,-,N/A,,Clear,230,2013-01-12 19:54:00
3:54 PM,55.0,43.0,64,29.94,10.0,SW,8.1,-,N/A,,Clear,230,2013-01-12 20:54:00
4:54 PM,51.1,43.0,74,29.95,10.0,NNW,6.9,-,N/A,,Clear,330,2013-01-12 21:54:00
5:54 PM,46.9,39.9,77,29.93,10.0,North,6.9,-,N/A,,Clear,360,2013-01-12 22:54:00
6:54 PM,44.6,35.6,71,29.95,10.0,NNW,8.1,-,N/A,,Overcast,330,2013-01-12 23:54:00
7:54 PM,44.1,35.1,71,29.93,10.0,North,8.1,-,N/A,,Overcast,350,2013-01-13 00:54:00
8:54 PM,42.1,36.0,79,29.92,10.0,North,5.8,-,0.00,Rain,Light Rain,360,2013-01-13 01:54:00
9:34 PM,41.0,37.4,87,29.89,5.0,North,8.1,-,0.06,Rain,Rain,360,2013-01-13 02:34:00
9:54 PM,39.9,36.0,86,29.87,6.0,North,8.1,-,0.10,Rain,Rain,10,2013-01-13 02:54:00
10:54 PM,39.9,37.0,89,29.88,5.0,North,12.7,-,0.10,Rain,Rain,350,2013-01-13 03:54:00
11:34 PM,39.2,35.6,87,29.86,6.0,North,11.5,-,0.08,Rain,Light Rain,360,2013-01-13 04:34:00
11:54 PM,39.0,36.0,89,29.86,7.0,North,11.5,20.7,0.11,Rain,Light Rain,10,2013-01-13 04:54:00